This demonstration page uses our WeatherBlox Daily Observations layout. Learn more.

Left ArrowRight Arrow

30.21309, -93.2044

Hourly Observations for March 1, 2015

Temp ( °F °C ) Dew Point ( °F °C ) Humidity (%) Winds ( mph kmh ) Pressure ( in mb ) Visibility ( mi km ) Precip ( " mm )
12:15 am 00:15 Cloudy 55 12.8 47 8.2 74 74 E 5 7 30.24 1024 10 16 0.00 0.00
12:35 am 00:35 Mostly Cloudy 54 12.4 47 8.5 77 77 E 6 9 30.24 1024 10 16 0.00 0.00
12:55 am 00:55 Cloudy 55 12.5 48 9 79 79 E 5 7 30.24 1024 10 16 0.00 0.00
1:15 am 01:15 Cloudy 55 13 51 10.3 84 84 E 7 11 30.24 1024 10 16 0.00 0.00
1:35 am 01:35 Cloudy 56 13.5 52 11.1 86 86 E 9 15 30.24 1024 10 16 0.00 0.00
1:55 am 01:55 Cloudy 56 13.3 53 11.5 89 89 ESE 8 13 30.24 1024 10 16 0.00 0.00
2:15 am 02:15 Cloudy 56 13.5 53 11.6 88 88 E 6 9 30.24 1024 10 16 0.00 0.00
2:35 am 02:35 Cloudy 56 13.5 53 11.8 90 90 E 6 9 30.21 1023 10 16 0.00 0.00
2:55 am 02:55 Cloudy 56 13.5 53 11.9 90 90 E 5 7 30.21 1023 10 16 0.00 0.00
3:15 am 03:15 Cloudy with Rain 56 13.5 54 12.1 91 91 E 6 9 30.21 1023 10 16 0.00 0.00
6:00 am 06:00 Cloudy with Rain 55 13 55 13 100 100 E 5 7 30.24 1024 5 8 0.00 0.00
6:50 am 06:50 Cloudy with Drizzle 57 14 55 13 94 94 E 5 7 30.24 1024 5 8 0.00 0.00
7:50 am 07:50 Cloudy with Mist and Fog 57 14 57 14 100 100 E 5 7 30.24 1024 5 8 0.00 0.00
8:50 am 08:50 Cloudy with Rain 57 14 57 14 100 100 E 7 11 30.24 1024 3 5 0.00 0.00
9:05 am 09:05 Cloudy with Heavy Rain 59 15 59 15 100 100 E 7 11 30.24 1024 1 2 0.00 0.00
9:50 am 09:50 Cloudy with Drizzle 63 17 63 17 100 100 SE 8 13 30.27 1025 10 16 0.00 0.00
10:50 am 10:50 Cloudy with Light Rain 64 18 63 17 94 94 SE 14 22 30.24 1024 10 16 0.00 0.00
11:50 am 11:50 Cloudy 66 19 64 18 94 94 SE 14 22 30.24 1024 10 16 0.00 0.00
12:50 pm 12:50 Cloudy 70 21 66 19 88 88 SSE 10 17 30.21 1023 10 16 0.00 0.00
1:50 pm 13:50 Cloudy with Rain 70 21 66 19 88 88 SSE 6 9 30.18 1022 N/A 0.00 0.00
2:50 pm 14:50 Cloudy with Heavy Rain 72 22 70 21 94 94 S 6 9 30.18 1022 N/A 0.00 0.00
4:55 pm 16:55 Cloudy with Mist and Fog 66 19 66 19 100 100 SSW 8 13 30.18 1022 N/A 0.00 0.00
5:50 pm 17:50 Cloudy with Fog 66 19 64 18 94 94 W 6 9 30.21 1023 N/A 0.00 0.00
8:15 pm 20:15 Cloudy with Heavy Rain 64 17.9 64 17.8 99 99 Calm 30.24 1024 1 2 0.18 4.57
8:35 pm 20:35 Cloudy 65 18.3 65 18.2 99 99 ENE 5 7 30.24 1024 10 16 0.21 5.33
8:55 pm 20:55 Cloudy with Drizzle 65 18.2 64 18 99 99 NE 5 7 30.24 1024 10 16 0.21 5.33
9:15 pm 21:15 Cloudy with Rain 64 17.9 64 17.7 99 99 ENE 6 9 30.24 1024 5 8 0.02 0.51
9:35 pm 21:35 Cloudy 64 17.7 64 17.5 99 99 ENE 5 7 30.24 1024 7 11 0.02 0.51
9:50 pm 21:50 Cloudy with Light Rain 63 17 63 17 100 100 ENE 7 11 30.24 1024 N/A 0.00 0.00
9:55 pm 21:55 Cloudy with Light Rain 63 17.3 63 17 98 98 ENE 7 11 30.24 1024 7 11 0.03 0.76
10:15 pm 22:15 Cloudy with Rain 63 17.2 63 17 99 99 ENE 6 9 30.24 1024 7 11 0.00 0.00
10:35 pm 22:35 Cloudy with Light Rain 63 17.2 63 17 99 99 ENE 6 9 30.24 1024 5 8 0.02 0.51
10:55 pm 22:55 Cloudy with Rain 63 17.1 63 17 99 99 NE 5 7 30.24 1024 4 6 0.06 1.52
11:15 pm 23:15 Cloudy with Light Rain 63 17.1 62 16.9 99 99 ENE 5 7 30.24 1024 7 11 0.00 0.00
11:35 pm 23:35 Cloudy with Rain 63 17.1 63 17 99 99 ENE 5 7 30.24 1024 3 4 0.04 1.02
11:55 pm 23:55 Cloudy with Drizzle 63 17.1 63 17 99 99 NE 5 7 30.24 1024 3 4 0.04 1.02

Powered by AerisWeather